[[{"header":{"parameterUnit":"m.s-1","parameterCategory":1,"la1":30.2991,"la2":30.254,"lo1":-89.0895,"lo2":-89.0444,"dy":0.0017,"dx":0.0017,"nx":28,"ny":28,"refTime":"2025-01-18T09:00:00:Z","depth":0,"parameterNumber":2,"parameterNumberName":"U-component_of_WINDS"},"data":[0,0,0,0,0,0,0,0,0,0,0,0,0,0,0,0,0,0,0,0,0,0,0,0,0,0,0,0,0,0,0,0,0,0,0,0,0,0,0,0,0,0,0,0,0,0,0,0,0,0,0,0,0,0,0,0,0,0,3.809,3.809,0,3.8073,3.8073,3.8073,3.7944,3.7941,3.7937,3.7934,3.7921,3.7924,3.7926,0,0,0,0,0,0,0,0,0,0,0,0,0,3.8016,3.8018,3.809,3.809,3.809,3.8073,3.8073,3.8073,3.7944,3.794,3.7937,3.7933,3.792,3.7923,3.7926,0,0,0,0,0,0,0,0,0,0,0,0,0,3.8029,3.8019,3.809,3.8024,3.8017,3.8073,3.8073,3.8073,3.7945,3.794,3.7936,3.7931,3.7919,3.7923,3.7927,3.8046,0,0,3.7939,3.7941,0,0,0,0,0,0,0,0,3.8028,3.8032,3.8034,3.8028,3.8021,3.8005,3.8042,3.8064,3.7946,3.7973,3.7934,3.7929,3.7953,3.7954,3.7962,3.8046,3.8045,3.7939,3.7942,3.7943,3.7944,0,0,0,0,0,0,0,3.8028,3.8032,3.8083,3.8034,3.8026,3.7996,3.7993,3.8045,3.799,3.797,3.7961,3.796,3.7949,3.7958,3.796,3.8045,3.7939,3.7943,3.7945,3.7946,3.8228,3.8233,0,0,0,0,0,0,3.8035,3.8032,3.8084,3.8083,3.8013,3.8001,3.7997,3.8016,3.7989,3.798,3.7964,3.7954,3.7954,3.7956,3.7959,3.8098,3.7943,3.7947,3.7949,3.8223,3.8229,3.8235,0,0,0,0,0,0,3.8034,3.8041,3.8085,3.8055,3.8058,3.8008,3.8029,3.8018,3.8026,3.7985,3.7975,3.7983,3.795,3.7954,3.8026,3.8096,3.7949,3.7952,3.8217,3.8225,3.8232,3.8377,0,0,0,0,0,0,3.8033,3.8042,3.8085,3.8057,3.806,3.8151,3.8033,3.8021,3.8033,3.802,3.8,3.7992,3.7947,3.8021,3.803,3.8099,3.7955,3.821,3.822,3.8229,3.8366,3.8389,3.8409,0,0,0,0,0,3.803,3.8128,3.8088,3.8095,3.8113,3.8155,3.8157,3.8101,3.8039,3.8084,3.8057,3.7993,3.8087,3.8029,3.8038,3.811,3.8206,3.8218,3.8229,3.8356,3.8384,3.8408,0,0,0,0,0,0,3.8167,3.8123,3.8078,3.8169,3.8166,3.8133,3.8187,3.8133,3.8149,3.8136,3.8068,3.8064,3.8147,3.8135,3.8072,3.8225,3.8135,3.8149,3.8229,3.8255,3.8276,3.8278,3.7958,0,0,0,0,0,3.8207,3.8243,3.8203,3.8287,3.8288,3.8238,3.8254,3.8211,3.8207,3.8205,3.8184,3.8183,3.8212,3.8233,3.8258,3.8363,3.8358,3.8417,3.8439,3.8456,3.8469,3.8526,3.8552,3.8273,3.8272,3.8272,0,0,3.8292,3.8272,3.8299,3.8314,3.8307,3.8347,3.8238,3.8285,3.8314,3.8213,3.8279,3.8264,3.8258,3.8348,3.8387,3.8341,3.8545,3.8471,3.8485,3.8489,3.854,3.8567,3.8591,3.828,3.8279,3.8278,0,0,3.8466,3.8454,3.8522,3.8518,3.8508,3.8475,3.8492,3.8467,3.8452,3.8518,3.8443,3.8478,3.8529,3.8529,3.8535,3.8711,3.8653,3.8721,3.8833,3.8889,3.8911,3.893,3.8993,3.9017,3.8734,3.8734,3.8735,0,3.8572,3.8628,3.8565,3.8617,3.8627,3.8536,3.8606,3.8605,3.8605,3.8615,3.8563,3.8626,3.8616,3.8705,3.8748,3.8756,3.8774,3.8723,3.8912,3.8931,3.8948,3.9008,3.9032,3.8743,3.8742,3.8741,3.874,0,3.876,3.88,3.8857,3.8858,3.8874,3.8935,3.8884,3.8908,3.8864,3.8837,3.8906,3.889,3.8911,3.8928,3.8887,3.9012,3.8984,3.8924,3.8833,3.8984,3.9039,3.9062,3.8755,3.8752,3.8749,3.8747,0,0,3.9019,3.8985,3.9007,3.9007,3.8991,3.9022,3.9079,3.9098,3.9121,3.9124,3.9172,3.9218,3.9162,3.917,3.9127,3.9176,3.9318,3.9109,3.9108,3.915,3.9457,3.9503,3.9531,3.9279,3.9283,3.9286,3.9457,0,3.9187,3.9282,3.9228,3.9332,3.9369,3.9284,3.9334,3.9331,3.9307,3.9337,3.931,3.9345,3.9267,3.9272,3.9316,3.9291,3.9379,3.9278,3.9324,3.9327,3.9329,3.9559,3.9608,3.977,3.9479,3.9482,3.9485,0,3.9395,3.9407,3.9515,3.9492,3.9505,3.9552,3.9565,3.9594,3.9589,3.9568,3.9578,3.9524,3.958,3.949,3.9568,3.9501,3.9517,3.9508,3.9512,3.9515,3.9416,3.9569,3.982,3.9845,3.9518,3.9515,3.9513,0,3.9575,3.9618,3.9688,3.969,3.9665,3.97,3.9692,3.9682,3.9697,3.9709,3.9719,3.9738,3.975,3.9767,3.972,3.9658,3.9805,3.971,3.9791,3.9792,3.9826,3.9824,4.0084,3.9835,3.9835,3.9834,3.9834,0,3.9769,3.9838,3.9768,3.9812,3.9887,3.9825,3.9903,3.9885,3.9877,3.9916,3.9844,3.9883,3.9818,3.9852,3.9816,3.9886,3.9892,3.9878,3.9868,3.9885,3.9887,3.9895,3.9882,3.9841,3.9839,3.9838,3.9837,0,3.9983,3.9938,4.0009,3.998,3.9974,4.0032,4.0007,4.0047,4.0018,4.0069,4.0077,4.0033,4.0068,4.0023,4.0054,4.003,4.0127,4.01,4.0129,4.0121,4.0204,4.0198,4.0479,4.0513,4.0242,4.0244,4.0247,0,4.0109,4.0161,4.0137,4.0158,4.0153,4.0188,4.0203,4.0144,4.0163,4.0162,4.0202,4.0231,4.0251,4.0311,4.0283,4.0307,4.028,4.0377,4.0283,4.0299,4.0282,4.028,4.0285,4.0396,4.0399,4.0402,4.0404,0,4.034,4.0315,4.0339,4.0357,4.0376,4.0387,4.0393,4.0414,4.0353,4.0379,4.0413,4.0428,4.046,4.049,4.0506,4.0499,4.0443,4.0434,4.0454,4.0472,4.0487,4.0481,4.0182,4.0428,4.0425,4.0424,4.0422,4.0421,4.0514,4.0556,4.0547,4.0576,4.0574,4.0581,4.0617,4.0593,4.062,4.0641,4.0605,4.0649,4.0644,4.0659,4.0658,4.0693,4.0651,4.068,4.0687,4.0696,4.0709,4.0481,4.0696,4.0695,4.0694,4.0694,4.0693,0,4.0742,4.0731,4.0759,4.0769,4.0793,4.0736,4.0739,4.0764,4.0803,4.0802,4.0823,4.0864,4.0893,4.0867,4.0891,4.0924,4.0898,4.0932,4.0929,4.0929,4.0744,4.0725,4.0952,4.0952,4.0952,4.0952,4.0952,4.0952,4.0863,4.0931,4.0906,4.0974,4.0963,4.1005,4.1012,4.1018,4.1017,4.1066,4.1089,4.1071,4.1061,4.1084,4.1108,4.11,4.1113,4.1156,4.1139,4.0967,4.0942,4.0917,4.0899,4.1159,4.1159,4.132,4.1322,4.1323]},{"header":{"parameterUnit":"m.s-1","parameterCategory":1,"la1":30.2991,"la2":30.254,"lo1":-89.0895,"lo2":-89.0444,"dy":0.0017,"dx":0.0017,"nx":28,"ny":28,"refTime":"2025-01-18T09:00:00:Z","depth":0,"parameterNumber":3,"parameterNumberName":"V-component_of_WINDS"},"data":[0,0,0,0,0,0,0,0,0,0,0,0,0,0,0,0,0,0,0,0,0,0,0,0,0,0,0,0,0,0,0,0,0,0,0,0,0,0,0,0,0,0,0,0,0,0,0,0,0,0,0,0,0,0,0,0,0,0,0.1775,0.1777,0,0.1945,0.1947,0.1949,0.1974,0.1973,0.1971,0.197,0.2141,0.2147,0.2152,0,0,0,0,0,0,0,0,0,0,0,0,0,0.1467,0.1472,0.1774,0.1777,0.1779,0.1945,0.1947,0.1949,0.1975,0.1973,0.1971,0.1969,0.2139,0.2146,0.2153,0,0,0,0,0,0,0,0,0,0,0,0,0,0.1615,0.1474,0.1774,0.1812,0.1817,0.1944,0.1947,0.195,0.1975,0.1973,0.197,0.1968,0.2136,0.2145,0.2154,0.2255,0,0,0.2181,0.2185,0,0,0,0,0,0,0,0,0.1606,0.1626,0.1804,0.1809,0.1815,0.1936,0.1901,0.2052,0.1976,0.1915,0.197,0.1967,0.2074,0.2088,0.2125,0.2263,0.227,0.2182,0.2188,0.2191,0.2194,0,0,0,0,0,0,0,0.1596,0.1619,0.1842,0.1806,0.1813,0.1818,0.1837,0.193,0.2005,0.192,0.1922,0.1942,0.2077,0.2116,0.2129,0.2273,0.2182,0.219,0.2195,0.2199,0.2499,0.2502,0,0,0,0,0,0,0.158,0.161,0.1836,0.1847,0.1703,0.1826,0.1846,0.19,0.2004,0.2018,0.1944,0.1943,0.2102,0.2119,0.2135,0.2259,0.2191,0.22,0.2205,0.2497,0.25,0.2503,0,0,0,0,0,0,0.1573,0.16,0.183,0.1729,0.1759,0.1833,0.1893,0.1904,0.1944,0.2022,0.2036,0.1971,0.2101,0.2123,0.2225,0.2265,0.2204,0.2212,0.2494,0.2498,0.2501,0.2508,0,0,0,0,0,0,0.1564,0.1597,0.1638,0.173,0.1764,0.1918,0.1895,0.1909,0.1959,0.1959,0.2051,0.2064,0.2101,0.2211,0.2234,0.2277,0.2219,0.249,0.2495,0.25,0.2504,0.2512,0.2518,0,0,0,0,0,0.1553,0.1632,0.164,0.1667,0.1817,0.192,0.1939,0.1981,0.1963,0.2003,0.2053,0.2061,0.2257,0.2221,0.2247,0.2293,0.2488,0.2494,0.25,0.2501,0.251,0.2518,0,0,0,0,0,0,0.1542,0.1645,0.1654,0.1766,0.1834,0.1924,0.1977,0.1989,0.2063,0.206,0.2108,0.2128,0.2227,0.227,0.2229,0.2395,0.2371,0.2382,0.2363,0.2372,0.2379,0.2366,0.2226,0,0,0,0,0,0.1553,0.163,0.1715,0.1806,0.1839,0.1902,0.1948,0.1975,0.2046,0.2075,0.2133,0.2201,0.2278,0.2327,0.2403,0.251,0.253,0.2555,0.2561,0.2566,0.2575,0.2633,0.2645,0.2522,0.2522,0.2522,0,0,0.1576,0.1641,0.1687,0.1805,0.1861,0.1937,0.1926,0.2008,0.2065,0.2087,0.2187,0.2231,0.231,0.2415,0.2464,0.2454,0.2613,0.2574,0.2577,0.2584,0.2641,0.2652,0.2662,0.2526,0.2525,0.2525,0,0,0.1656,0.1715,0.1796,0.1852,0.1936,0.1977,0.1996,0.2084,0.2115,0.2216,0.2233,0.2301,0.2433,0.2488,0.2533,0.2632,0.2641,0.2655,0.2689,0.2746,0.2755,0.2764,0.2798,0.281,0.2663,0.2663,0.2663,0,0.1674,0.1792,0.1835,0.1917,0.1967,0.1991,0.2072,0.2124,0.2228,0.2262,0.2249,0.2414,0.2469,0.2586,0.261,0.2646,0.2668,0.2645,0.2751,0.276,0.2769,0.2801,0.2814,0.2664,0.2664,0.2664,0.2664,0,0.1808,0.1889,0.1944,0.2045,0.2101,0.2182,0.2236,0.2288,0.2308,0.235,0.2451,0.2517,0.2605,0.2635,0.2656,0.2755,0.2745,0.2741,0.2718,0.2781,0.2812,0.2825,0.2666,0.2666,0.2665,0.2665,0,0,0.1888,0.2011,0.203,0.2075,0.2169,0.2232,0.2312,0.24,0.2442,0.2512,0.258,0.269,0.2686,0.2737,0.2764,0.2813,0.2885,0.2803,0.2805,0.2815,0.2996,0.2998,0.3012,0.2892,0.2894,0.2897,0.2989,0,0.1979,0.2125,0.2166,0.2289,0.2363,0.2386,0.2455,0.2519,0.256,0.2627,0.2671,0.2748,0.2737,0.2768,0.2818,0.2866,0.2922,0.286,0.2953,0.2956,0.2933,0.3029,0.3032,0.3116,0.3002,0.3004,0.3005,0,0.2105,0.2178,0.2309,0.2392,0.2424,0.2487,0.2568,0.2633,0.2705,0.2731,0.2787,0.2809,0.2892,0.2863,0.2977,0.2933,0.2974,0.3003,0.3007,0.3017,0.2984,0.3041,0.3144,0.3157,0.3025,0.3024,0.3022,0,0.2149,0.228,0.2375,0.2413,0.2512,0.2555,0.2598,0.2668,0.2717,0.2788,0.2819,0.2898,0.2942,0.3001,0.3043,0.3019,0.3152,0.3128,0.3174,0.3173,0.3202,0.3199,0.3312,0.3228,0.3228,0.3228,0.3228,0,0.2246,0.2324,0.2395,0.2453,0.2541,0.2586,0.2671,0.2715,0.2776,0.2842,0.2866,0.2926,0.2978,0.3045,0.3078,0.3166,0.3185,0.3207,0.3214,0.3205,0.3202,0.3232,0.3227,0.3231,0.3231,0.323,0.3229,0,0.231,0.2361,0.2465,0.255,0.2573,0.2634,0.2706,0.2762,0.2802,0.2885,0.2906,0.2969,0.3049,0.3097,0.3197,0.3219,0.3316,0.3322,0.3292,0.3296,0.3339,0.3334,0.3475,0.3495,0.3398,0.3399,0.3399,0,0.2368,0.2429,0.2521,0.2567,0.2611,0.2685,0.2735,0.278,0.2831,0.2916,0.2961,0.3043,0.3111,0.3236,0.329,0.3366,0.3374,0.3418,0.3385,0.3373,0.3373,0.3369,0.3374,0.3423,0.3424,0.3425,0.3425,0,0.2466,0.2488,0.256,0.2641,0.27,0.2765,0.283,0.2865,0.2921,0.2977,0.3059,0.3111,0.3214,0.3294,0.3374,0.3416,0.343,0.3435,0.3449,0.344,0.342,0.343,0.3306,0.3431,0.3431,0.343,0.343,0.343,0.2529,0.2584,0.2656,0.2735,0.2788,0.2848,0.2904,0.2952,0.3021,0.3109,0.3131,0.3217,0.3285,0.3395,0.3439,0.3505,0.3498,0.3519,0.3525,0.3529,0.353,0.3409,0.352,0.352,0.352,0.352,0.352,0,0.2627,0.2675,0.2747,0.2837,0.2898,0.2906,0.2977,0.3027,0.3103,0.3166,0.3232,0.3325,0.3402,0.3461,0.354,0.3581,0.3589,0.36,0.3597,0.3607,0.3532,0.3511,0.3592,0.3592,0.3592,0.3592,0.3592,0.3592,0.2686,0.2778,0.2808,0.2926,0.2973,0.3058,0.3098,0.3152,0.3202,0.3306,0.337,0.3408,0.3469,0.3552,0.3622,0.3637,0.3664,0.3674,0.369,0.362,0.3612,0.3604,0.3585,0.368,0.368,0.3759,0.376,0.376]}]]